When you browse on this site, cookies collect data to enhance your experience and personalize the content and advertising you see.
Visit our Privacy Policy to learn more. By continuing to use the site, you agree to this use of cookies and data.
  • en France
  • Liste des pays
  • À 7 jours
  • Température de l'eau
  • Carte satellitaire
  • Carte météo
  • Widgets météo
  • user-avatar
    Se connecter

    Météo par heure à Plymouth

    Ce jour, 13 Décembre, Jeudi

    Heure Température Précipitation Vent Pression Humidité
    00:00 +4°C° 0 mm 11 m/s 755 mmHg 80%
    01:00 +4°C° 0.1 mm 12 m/s 755 mmHg 79%
    02:00 +3°C° 0.1 mm 12 m/s 754 mmHg 78%
    03:00 +3°C° 0.1 mm 12 m/s 754 mmHg 76%
    04:00 +3°C° 0.1 mm 12 m/s 754 mmHg 75%
    05:00 +3°C° 0.1 mm 12 m/s 754 mmHg 74%
    06:00 +3°C° 0.1 mm 12 m/s 753 mmHg 73%
    07:00 +3°C° 0.2 mm 12 m/s 754 mmHg 72%
    08:00 +3°C° 0.2 mm 12 m/s 754 mmHg 72%
    09:00 +3°C° 0.2 mm 12 m/s 754 mmHg 72%
    10:00 +3°C° 0.1 mm 12 m/s 754 mmHg 72%
    11:00 +4°C° 0.1 mm 12 m/s 754 mmHg 72%
    12:00 +3°C° 0 mm 12 m/s 755 mmHg 75%
    13:00 +3°C° 0.1 mm 12 m/s 756 mmHg 74%
    14:00 +3°C° 0.1 mm 12 m/s 756 mmHg 74%
    15:00 +4°C° 0.1 mm 11 m/s 756 mmHg 73%
    16:00 +3°C° 0 mm 11 m/s 757 mmHg 74%
    17:00 +3°C° 0 mm 10 m/s 758 mmHg 74%
    18:00 +3°C° 0 mm 10 m/s 758 mmHg 75%
    19:00 +3°C° 0 mm 9 m/s 759 mmHg 76%
    20:00 +3°C° 0 mm 9 m/s 759 mmHg 77%
    21:00 +4°C° 0 mm 8 m/s 760 mmHg 78%
    22:00 +4°C° 0 mm 8 m/s 760 mmHg 78%
    23:00 +3°C° 0 mm 7 m/s 761 mmHg 78%

    Demain, 14 Décembre, Vendredi

    Heure Température Précipitation Vent Pression Humidité
    00:00 +3°C° 0 mm 7 m/s 761 mmHg 79%
    01:00 +3°C° 0 mm 6 m/s 761 mmHg 78%
    02:00 +3°C° 0 mm 6 m/s 762 mmHg 78%
    03:00 +3°C° 0 mm 6 m/s 762 mmHg 78%
    04:00 +2°C° 0 mm 6 m/s 762 mmHg 78%
    05:00 +2°C° 0 mm 6 m/s 762 mmHg 79%
    06:00 +2°C° 0 mm 6 m/s 762 mmHg 79%
    07:00 +2°C° 0 mm 6 m/s 763 mmHg 78%
    08:00 +2°C° 0 mm 6 m/s 763 mmHg 77%
    09:00 +2°C° 0 mm 6 m/s 763 mmHg 77%
    10:00 +3°C° 0 mm 7 m/s 763 mmHg 74%
    11:00 +4°C° 0 mm 7 m/s 763 mmHg 72%
    12:00 +5°C° 0 mm 7 m/s 763 mmHg 70%
    13:00 +4°C° 0 mm 7 m/s 763 mmHg 70%
    14:00 +4°C° 0 mm 7 m/s 763 mmHg 71%
    15:00 +4°C° 0 mm 7 m/s 763 mmHg 71%
    16:00 +4°C° 0 mm 7 m/s 763 mmHg 72%
    17:00 +4°C° 0 mm 7 m/s 763 mmHg 72%
    18:00 +4°C° 0 mm 7 m/s 762 mmHg 72%
    19:00 +4°C° 0.1 mm 8 m/s 762 mmHg 75%
    20:00 +5°C° 0.1 mm 8 m/s 762 mmHg 77%
    21:00 +5°C° 0.1 mm 8 m/s 762 mmHg 80%
    22:00 +5°C° 0.1 mm 9 m/s 761 mmHg 83%
    23:00 +5°C° 0.1 mm 9 m/s 761 mmHg 86%

    Après-demain, 15 Décembre, Samedi

    Heure Température Précipitation Vent Pression Humidité
    00:00 +5°C° 0.1 mm 9 m/s 760 mmHg 89%
    01:00 +6°C° 0.2 mm 10 m/s 759 mmHg 89%
    02:00 +6°C° 0.2 mm 11 m/s 759 mmHg 89%
    03:00 +6°C° 0.2 mm 11 m/s 758 mmHg 89%
    04:00 +5°C° 0.8 mm 12 m/s 757 mmHg 90%
    05:00 +5°C° 0.8 mm 12 m/s 756 mmHg 91%
    06:00 +5°C° 0.8 mm 13 m/s 755 mmHg 92%
    07:00 +5°C° 1.6 mm 12 m/s 754 mmHg 93%
    08:00 +5°C° 1.6 mm 12 m/s 753 mmHg 93%
    09:00 +7°C° 1.6 mm 11 m/s 753 mmHg 94%
    10:00 +8°C° 2.2 mm 11 m/s 752 mmHg 94%
    11:00 +9°C° 2.2 mm 11 m/s 751 mmHg 95%
    12:00 +11°C° 2.2 mm 10 m/s 750 mmHg 96%
    13:00 +12°C° 1.1 mm 12 m/s 749 mmHg 95%
    14:00 +12°C° 1.1 mm 13 m/s 748 mmHg 94%
    15:00 +12°C° 1.1 mm 14 m/s 747 mmHg 93%
    16:00 +10°C° 0.5 mm 14 m/s 748 mmHg 86%
    17:00 +9°C° 0.5 mm 14 m/s 748 mmHg 79%
    18:00 +8°C° 0.5 mm 13 m/s 749 mmHg 73%
    19:00 +7°C° 0 mm 13 m/s 750 mmHg 73%
    20:00 +7°C° 0 mm 12 m/s 750 mmHg 73%
    21:00 +7°C° 0 mm 11 m/s 751 mmHg 73%
    22:00 +6°C° 0 mm 11 m/s 752 mmHg 73%
    23:00 +6°C° 0 mm 10 m/s 752 mmHg 74%

    16 Décembre, Dimanche

    Heure Température Précipitation Vent Pression Humidité
    00:00 +6°C° 0 mm 9 m/s 752 mmHg 75%
    01:00 +6°C° 0.1 mm 9 m/s 753 mmHg 77%
    02:00 +5°C° 0.1 mm 8 m/s 753 mmHg 78%
    03:00 +5°C° 0.1 mm 8 m/s 753 mmHg 80%
    04:00 +5°C° 0.2 mm 8 m/s 753 mmHg 81%
    05:00 +5°C° 0.2 mm 7 m/s 753 mmHg 82%
    06:00 +5°C° 0.2 mm 7 m/s 753 mmHg 82%
    07:00 +5°C° 0.1 mm 7 m/s 753 mmHg 83%
    08:00 +5°C° 0.1 mm 7 m/s 753 mmHg 83%
    09:00 +5°C° 0.1 mm 7 m/s 753 mmHg 83%
    10:00 +6°C° 0.5 mm 7 m/s 753 mmHg 82%
    11:00 +6°C° 0.5 mm 8 m/s 753 mmHg 81%
    12:00 +7°C° 0.5 mm 8 m/s 753 mmHg 80%
    13:00 +7°C° 0.5 mm 8 m/s 753 mmHg 80%
    14:00 +8°C° 0.5 mm 7 m/s 753 mmHg 81%
    15:00 +8°C° 0.5 mm 7 m/s 753 mmHg 81%
    16:00 +6°C° 0 mm 7 m/s 754 mmHg 82%
    17:00 +5°C° 0 mm 6 m/s 754 mmHg 82%
    18:00 +5°C° 0 mm 6 m/s 755 mmHg 83%
    19:00 +5°C° 0 mm 6 m/s 755 mmHg 83%
    20:00 +5°C° 0 mm 6 m/s 756 mmHg 84%
    21:00 +5°C° 0 mm 6 m/s 757 mmHg 84%
    22:00 +5°C° 0.1 mm 6 m/s 757 mmHg 84%
    23:00 +5°C° 0.1 mm 6 m/s 757 mmHg 85%

    17 Décembre, Lundi

    Heure Température Précipitation Vent Pression Humidité
    00:00 +5°C° 0.1 mm 6 m/s 757 mmHg 85%
    01:00 +5°C° 0.1 mm 6 m/s 757 mmHg 85%
    02:00 +5°C° 0.1 mm 6 m/s 758 mmHg 86%
    03:00 +5°C° 0.1 mm 6 m/s 758 mmHg 86%
    04:00 +5°C° 0.1 mm 6 m/s 758 mmHg 86%
    05:00 +5°C° 0.1 mm 6 m/s 758 mmHg 86%
    06:00 +6°C° 0.1 mm 5 m/s 758 mmHg 87%
    07:00 +5°C° 0 mm 6 m/s 758 mmHg 86%
    08:00 +6°C° 0 mm 7 m/s 758 mmHg 86%
    09:00 +6°C° 0 mm 7 m/s 759 mmHg 86%
    10:00 +7°C° 0.1 mm 8 m/s 758 mmHg 84%
    11:00 +8°C° 0.1 mm 9 m/s 758 mmHg 83%
    12:00 +9°C° 0.1 mm 10 m/s 758 mmHg 82%
    13:00 +9°C° 0.1 mm 11 m/s 757 mmHg 83%
    14:00 +9°C° 0.1 mm 12 m/s 757 mmHg 84%
    15:00 +9°C° 0.1 mm 12 m/s 756 mmHg 86%
    16:00 +9°C° 0.1 mm 13 m/s 755 mmHg 86%
    17:00 +10°C° 0.1 mm 13 m/s 755 mmHg 87%
    18:00 +10°C° 0.1 mm 14 m/s 754 mmHg 88%
    19:00 +10°C° 0.2 mm 14 m/s 754 mmHg 87%
    20:00 +10°C° 0.2 mm 15 m/s 754 mmHg 87%
    21:00 +10°C° 0.2 mm 15 m/s 753 mmHg 86%
    22:00 +10°C° 0.2 mm 16 m/s 753 mmHg 85%
    23:00 +10°C° 0.2 mm 16 m/s 752 mmHg 84%

    18 Décembre, Mardi

    Heure Température Précipitation Vent Pression Humidité
    00:00 +10°C° 0.2 mm 17 m/s 752 mmHg 83%
    01:00 +10°C° 0.4 mm 17 m/s 751 mmHg 84%
    02:00 +10°C° 0.4 mm 17 m/s 750 mmHg 84%
    03:00 +10°C° 0.4 mm 17 m/s 750 mmHg 85%
    04:00 +10°C° 1.2 mm 18 m/s 749 mmHg 83%
    05:00 +10°C° 1.2 mm 18 m/s 748 mmHg 82%
    06:00 +9°C° 1.2 mm 18 m/s 747 mmHg 80%
    07:00 +9°C° 1.7 mm 18 m/s 746 mmHg 82%
    08:00 +8°C° 1.7 mm 19 m/s 745 mmHg 83%
    09:00 +8°C° 1.7 mm 19 m/s 744 mmHg 84%
    10:00 +9°C° 2 mm 16 m/s 745 mmHg 84%
    11:00 +8°C° 2 mm 12 m/s 745 mmHg 85%
    12:00 +8°C° 2 mm 9 m/s 745 mmHg 85%
    13:00 +8°C° 0.4 mm 9 m/s 745 mmHg 84%
    14:00 +7°C° 0.4 mm 9 m/s 746 mmHg 83%
    15:00 +7°C° 0.4 mm 9 m/s 746 mmHg 82%
    16:00 +7°C° 0.2 mm 10 m/s 747 mmHg 81%
    17:00 +7°C° 0.2 mm 10 m/s 747 mmHg 80%
    18:00 +6°C° 0.2 mm 10 m/s 748 mmHg 79%
    19:00 +6°C° 0.1 mm 10 m/s 748 mmHg 79%
    20:00 +6°C° 0.1 mm 10 m/s 749 mmHg 78%
    21:00 +6°C° 0.1 mm 10 m/s 749 mmHg 78%
    22:00 +6°C° 0.2 mm 11 m/s 749 mmHg 78%
    23:00 +6°C° 0.2 mm 11 m/s 750 mmHg 79%
    Voir plus